Location: Okie-Tex Star Party
(36.8978°N, 102.9520°W)
Time: 17:16:08
(UTC-05:00)

Daily predictions for brighter satellites

Satellite Brightness Start Highest point End
(mag) Time Altitude Azimuth Time Altitude Azimuth Time Altitude Azimuth
ERS-1 Rocket 3.8 21:24:24 10° SE 21:28:52 33° ENE 21:33:21 10° N
Cosmos 1340 Rocket 3.7 21:26:10 10° SSW 21:30:06 56° W 21:34:04 10° N
Cosmos 407 Rocket 4.1 21:28:00 10° N 21:33:00 42° ENE 21:38:02 10° SE
H-2A R/B 2.7 21:34:35 10° S 21:38:18 85° WSW 21:42:02 10° NNW
Cosmos 1782 3.1 21:37:26 10° N 21:41:21 47° E 21:45:15 10° SSE
USA 186 1.9 21:39:06 10° S 21:42:11 75° W 21:45:29 10° NNW
Cosmos 1356 Rocket 4.0 21:38:07 10° SSW 21:42:18 64° W 21:46:35 10° N
Cosmos 1452 Rocket 3.7 21:38:08 10° S 21:43:09 48° ESE 21:48:14 10° NNE
Cosmos 2074 Rocket 4.1 21:38:06 10° S 21:44:23 88° W 21:50:41 10° N
Cosmos 1674 Rocket 3.7 21:40:30 10° N 21:44:53 55° E 21:49:12 10° SSE
Cosmos 1190 Rocket 4.0 21:43:35 10° NNW 21:48:48 75° ENE 21:53:59 10° SSE
ATLAS 5 CENTAUR R/B 2.8 21:45:32 10° NW 21:51:36 65° WSW 21:58:00 10° SSE
Resurs 01 Rocket 4.4 21:51:03 10° SW 21:53:58 17° W 21:56:54 10° NW
OAO 3 Rocket 4.0 21:49:35 10° SW 21:54:01 33° SSE 21:58:14 11° E
Cosmos 1610 Rocket 4.4 21:48:14 10° S 21:54:21 75° E 22:00:35 10° N
ISS -2.9 21:51:50 10° WSW 21:55:03 66° NW 21:58:18 10° NE
Cosmos 1184 Rocket 4.0 21:52:57 13° SE 21:55:11 24° E 21:57:57 10° NE
Atlas Centaur 2 2.3 21:52:47 10° WSW 21:55:50 25° S 21:57:58 15° SE
Cosmos 1939 Rocket 3.4 21:52:48 12° SE 21:56:06 40° ENE 21:59:47 10° N
Cosmos 1408 3.2 21:55:17 10° SSE 21:58:37 34° E 22:01:57 10° NNE
Cosmos 1782 Rocket 4.4 21:54:50 10° SSE 21:58:46 31° E 22:02:44 10° NNE
Sich 1 Rocket 3.6 21:55:17 10° S 21:59:51 77° E 22:04:26 10° N
Nadezhda 3 Rocket 4.2 21:57:44 10° N 22:03:58 54° E 22:09:53 11° SSE
CENTAUR R/B 3.9 21:56:40 10° NW 22:04:20 51° WSW 22:12:17 10° S
Meteor 2-6 Rocket 4.3 21:58:32 10° N 22:04:29 86° E 22:10:17 10° S
Cosmos 1238 Rocket 3.5 22:02:09 10° NNE 22:05:17 32° E 22:07:26 19° SE
Coronas F rocket 4.4 22:05:02 10° WSW 22:06:54 17° WNW 22:08:47 10° NNW
SPOT 5 3.7 22:04:32 16° SE 22:08:21 39° ENE 22:13:18 10° N
Cosmos 1825 2.3 22:05:57 10° S 22:09:38 51° E 22:13:22 10° NNE
COSMOS 2406 4.2 22:08:24 10° NW 22:13:50 46° WSW 22:19:14 10° S
Cosmos 2084 3.8 22:10:10 10° SW 22:13:59 58° NW 22:17:46 10° NNE
Cosmos 1833 Rocket 4.5 22:10:57 10° NNE 22:14:32 17° NE 22:17:28 12° E
Cosmos 1975 Rocket 3.7 22:11:56 10° N 22:15:57 36° ENE 22:18:01 23° SE
Cosmos 2278 Rocket 2.1 22:10:44 10° SSW 22:16:23 80° ESE 22:22:05 10° NNE
Cosmos 1844 Rocket 3.8 22:11:18 10° SW 22:16:45 48° WNW 22:22:12 10° N
Cosmos 676 Rocket 3.9 22:14:27 10° NNW 22:19:41 85° ENE 22:23:43 17° SSE
Cosmos 1174 3.0 22:17:20 10° NNW 22:20:28 90° ENE 22:21:43 32° SSE
Cosmos 1844 4.4 22:16:20 10° SW 22:22:00 60° WNW 22:27:45 10° NNE
COS B Rocket 3.0 22:19:16 10° N 22:23:13 71° E 22:25:27 21° S
Cosmos 1908 Rocket 3.8 22:18:58 10° SSW 22:23:21 74° W 22:27:48 10° N
Cosmos 1954 Rocket 4.0 22:18:24 10° NNW 22:23:37 70° ENE 22:27:04 22° SSE
Abrixas 4.5 22:21:40 10° SSW 22:22:33 16° S 22:22:33 16° S
Cosmos 1378 Rocket 3.4 22:22:15 10° N 22:26:34 80° E 22:29:29 20° SSE
Cosmos 2341 Rocket 3.9 22:22:19 10° S 22:28:37 79° E 22:34:54 10° N
BREEZE-M DEB (TANK) 4.0 22:23:03 10° WNW 22:35:45 53° NNE 22:38:18 23° E
deb Chang Zheng 4 4.0 22:32:33 10° N 22:36:56 65° WNW 22:41:19 10° SSW
Cosmos 2082 Rocket 3.2 22:33:27 10° N 22:38:34 33° ENE 22:40:49 24° E
Cosmos 1741 Rocket 4.5 22:33:42 10° N 22:38:42 44° ENE 22:40:43 30° ESE
SL-8 Rocket 4.1 22:34:24 19° SSE 22:38:49 54° E 22:44:53 10° NNE
GPS 2-05 Rocket1 2.8 22:35:52 10° W 22:39:34 73° S 22:40:32 45° ESE
Meteor 1-14 Rocket 4.5 22:36:23 24° SSE 22:39:34 48° E 22:44:55 10° NNE
Cosmos 962 Rocket 4.5 22:33:37 10° S 22:39:46 86° W 22:46:02 10° N
USA 245 3.8 22:42:27 35° E 22:42:45 35° ENE 22:46:25 10° N
Cosmos 1023 Rocket 4.4 22:38:01 10° NNW 22:43:07 70° ENE 22:45:25 33° SSE
Timation 2 Rocket 3.9 22:40:30 10° NNW 22:46:27 64° ENE 22:49:12 32° SE
Intercosmos 25 2.9 22:47:33 45° S 22:48:30 74° E 22:51:40 10° N
H-2A R/B 2.8 22:49:42 21° SSW 22:52:22 49° W 22:56:29 10° NNW
Cosmos 2297 3.6 22:47:03 10° SSW 22:52:44 80° ESE 22:58:29 10° NNE
Envisat 3.6 22:49:15 17° S 22:53:01 53° W 22:58:00 10° NNW
Cosmos 2151 Rocket 3.9 22:53:44 44° ESE 22:54:21 47° E 22:58:42 10° NNE
COSMOS 2487 3.2 22:53:02 10° NNW 22:56:32 49° WSW 22:57:31 37° SSW
Cosmos 1295 Rocket 4.5 22:51:39 13° S 22:57:27 86° W 23:03:46 10° N
SEDSat Delta rocket 4.0 22:54:05 10° SW 22:56:52 28° SSW 22:56:52 28° SSW
NOAA 11 4.3 22:57:39 38° SE 22:59:31 57° ENE 23:04:54 10° N
CZ-4 R/B 3.9 22:57:41 10° NNE 23:02:14 51° E 23:02:41 49° ESE
APEX 4.0 22:58:35 10° SW 23:02:17 58° WNW 23:07:10 10° NNE
OAO 1 Rocket 4.3 22:58:14 10° WSW 23:03:29 66° S 23:05:03 44° ESE
CZ-4 SHROUD 3.6 23:05:12 57° W 23:05:12 57° W 23:08:10 10° NNW
Cosmos 614 Rocket 3.8 23:00:19 10° NNW 23:05:24 73° ENE 23:06:40 50° SE
PSLV R/B 3.9 23:05:42 48° W 23:05:42 48° W 23:08:24 10° NNW
Cosmos 864 Rocket 4.4 23:06:30 38° SSE 23:08:52 64° E 23:14:57 10° NNE
MetOp-B 4.3 23:06:48 32° S 23:09:19 68° WSW 23:14:40 10° NNW
CZ-4C R/B 4.2 23:17:11 38° NE 23:17:11 38° NE 23:20:29 10° N
Cosmos 1140 Rocket 4.0 23:12:50 10° NNW 23:17:50 53° WSW 23:19:37 36° SSW
Landsat 7 4.0 23:19:26 51° E 23:19:40 52° ENE 23:24:18 10° N
Cosmos 2366 rocket 3.9 23:16:58 35° S 23:19:50 84° E 23:26:12 10° N
H-2A R/B 2.4 23:22:52 47° E 23:23:29 49° ENE 23:28:35 10° N
Cosmos 2369 Rocket 4.3 23:26:49 12° ENE 23:26:49 12° ENE 23:27:34 10° ENE
SL-08 RB Rocket 3.6 23:27:36 76° S 23:27:57 87° WSW 23:32:36 10° NNW
CZ-4B R/B 3.8 23:23:12 10° N 23:28:03 61° WNW 23:30:09 32° SW
USA 234 3.3 23:22:53 10° NE 23:29:14 52° SE 23:30:12 48° SSE
ARGOS 3.2 23:28:02 51° S 23:29:21 74° WSW 23:34:43 10° NNW
YAOGAN 6 4.1 23:30:30 29° W 23:30:35 29° W 23:33:43 10° NW
Cosmos 1242 Rocket 4.2 23:28:40 10° NNW 23:31:51 28° W 23:32:16 27° WSW
ISS 0.1 23:30:38 10° NW 23:32:00 12° NNW 23:33:23 10° N
Timation 1 Rocket 4.2 23:29:58 41° SSW 23:32:13 83° ESE 23:38:15 10° NNE
CZ-3 Stage 3 4.3 15:27:17 10° SSW 23:33:22 66° SSW 23:37:00 40° SE
Terra 2.2 23:35:40 51° ENE 23:35:40 51° ENE 23:40:00 10° N
OAO 3 Rocket 3.7 23:32:21 10° WSW 23:36:05 48° SW 23:36:05 48° SW
SPOT 1/Viking Rocket 4.1 23:37:46 41° SW 23:39:03 51° W 23:44:08 10° NNW
Meteor 1-20 Rocket 4.1 23:43:06 67° SSW 23:43:53 88° W 23:49:26 10° N
Spot 4 4.3 23:50:39 51° NE 23:50:39 51° NE 23:54:48 10° N
CARTOSAT-1 4.1 23:52:52 55° N 23:52:52 55° N 23:56:16 10° N
Okean 1 4.4 23:51:34 10° N 23:54:20 42° N 23:54:20 42° N
